Tracking 30923 objects as of 1-Jul-2025
HD Live streaming from Space Station
objects crossing your sky now

COSMOS 2251 DEB

Track COSMOS 2251 DEB now!
10-day predictions


NORAD ID: 46271
Int'l Code: 1993-036BWR
Perigee: 700.6 km
Apogee: 759.1 km
Inclination: 74.0 °
Period: 99.2 minutes
Semi major axis: 7100 km
RCS: Unknown
Launch date: June 16, 1993
Source: Commonwealth of Independent States (former USSR) (CIS)
Launch site: PLESETSK MISSILE AND SPACE COMPLEX (PKMTR)

Note: This is SATELLITE DEBRIS
Your satellite tracking list
Your tracking list is empty




NASA's NSSDC Master Catalog

Two Line Element Set (TLE):
1 46271U 93036BWT 25181.85807902  .00000634  00000-0  16601-3 0  9997
2 46271  74.0467  28.1951 0041172 190.0561 169.9782 14.50898979822502
Source of the keplerian elements: AFSPC